Weather Roundup
Issued by NWS Springfield, MO

Home | Current Version | Previous Version | Text Only | Print | Product List | Glossary On
Versions: 1 2 3 4 5 6 7 8 9 10 11 12 13 14 15 16 17 18 19 20 21 22 23 24 25 26 27 28 29 30 31 32 33 34 35 36 37 38 39 40 41 42 43 44 45 46 47 48 49 50
084
NZUS99 KSGF 260007
HRRSGF

HOURLY WEATHER
NATIONAL WEATHER SERVICE SPRINGFIELD MO
700 PM CDT THU MAY 25 2017

......SGF CWA......

CITY           SKY/WX    TMP DP  RH WIND       PRES   REMARKS
SPRINGFIELD    SUNNY     75  56  51 SE17      29.65F
6HR MIN TEMP:  70; 6HR MAX TEMP:  77;

JOPLIN         SUNNY     80  58  46 S13       29.59F
6HR MIN TEMP:  74; 6HR MAX TEMP:  81;

WEST PLAINS    SUNNY     74  53  48 S8        29.73F
6HR MIN TEMP:  68; 6HR MAX TEMP:  75;

ROLLA          SUNNY     71  54  54 SE6       29.69S
6HR MIN TEMP:  68; 6HR MAX TEMP:  73;

OSAGE BEACH    SUNNY     73  55  53 SE6       29.67F
BRANSON        PTSUNNY   75  55  50 S10       29.69

......SURROUNDING SGF CWA......

CITY           SKY/WX    TMP DP  RH WIND       PRES   REMARKS
CHANUTE        SUNNY     78  58  49 S16       29.56S
PARSONS        SUNNY     80  58  46 S9        29.58R
COFFEYVILLE    SUNNY     79  61  53 S14       29.56S
EMPORIA        SUNNY     76  57  51 S20       29.53S
GROVE OK       SUNNY     79  59  50 SE8       29.61S
ROGERS AR      SUNNY     77  56  48 SE15      29.65F
SILOAM SPRINGS SUNNY     77  55  47 SE10G18   29.63S
HARRISON AR    SUNNY     74  56  53 SE13      29.70F
NEAR YELLVILLE SUNNY     75  54  46 SE5       29.69S

......KANSAS AND MISSOURI......

CITY           SKY/WX    TMP DP  RH WIND       PRES   REMARKS
KANSAS CTY INT MOSUNNY   73  55  53 SE18      29.57F
DOWNTOWN KC    SUNNY     76  54  46 SE8G22    29.57F
COLUMBIA       SUNNY     71  53  52 SE8       29.67F
SEDALIA        SUNNY     74  56  53 SE8       29.65S
ST JOSEPH      SUNNY     75  57  53 SE13      29.56F
ST LOUIS       MOSUNNY   77  50  38 VRB6      29.71R
SPIRIT OF STL  MOSUNNY   74  52  46 SW6       29.70R
KIRKSVILLE     SUNNY     71  51  49 S10       29.66F
WICHITA        MOSUNNY   82  60  47 S22G29    29.47F
TOPEKA         SUNNY     77  57  50 SE15      29.54S
OLATHE         SUNNY     73  56  54 SE13G21   29.58F

......TENNESSEE......

CITY           SKY/WX    TMP DP  RH WIND       PRES   REMARKS
MEMPHIS        MOSUNNY   74  55  51 SW10      29.79S
NASHVILLE      PTCLDY    72  52  49 VRB5      29.79R

......ARKANSAS.......

CITY           SKY/WX    TMP DP  RH WIND       PRES   REMARKS
FAYETTEVILLE   SUNNY     77  56  48 SE9G20    29.65F
FT SMITH       SUNNY     83  56  39 SE10G18   29.63S
LITTLE ROCK    MOSUNNY   77  58  51 S9        29.74S

......OKLAHOMA.......

CITY           SKY/WX    TMP DP  RH WIND       PRES   REMARKS
TULSA          PTSUNNY   82  61  48 S16G25    29.53F
PONCA CITY     SUNNY     84  59  42 S13G22    29.49F
MCALESTER      SUNNY     84  61  45 S14G25    29.60S
OKLAHOMA CITY  PTSUNNY   85  60  42 S15G26    29.50F

......IOWA............

CITY           SKY/WX    TMP DP  RH WIND       PRES   REMARKS
DES MOINES     CLOUDY    72  49  44 S8        29.64R
QUAD CITIES    SUNNY     72  52  49 NE6       29.68R

......ILLINOIS........

CITY           SKY/WX    TMP DP  RH WIND       PRES   REMARKS
QUINCY         SUNNY     71  51  49 S8        29.69S
CHICAGO        MOSUNNY   65  50  58 NE9       29.68R




USA.gov is the U.S. government's official web portal to all federal, state and local government web resources and services.